User: anonymous   Login
Location: Unspecified
(0.0000°N, 0.0000°E)
Time: 08:39:52
(UTC+02:00)
Language:

H-2A R/B - Orbit

View from above orbital plane
View from above orbital plane
View from above satellite
View from above satellite

Ground track
Ground track

The orbit data is extracted from the following two-line orbital elements,

1 28932U 06002B   16209.39314572  .00000287  00000-0  33592-4 0  9997
2 28932  98.2110 113.2888 0089475 295.9436 189.0575 14.90965606569404
Epoch (UTC): 27 July 2016 09:26:07
Eccentricity: 0.0089475
inclination: 98.2110°
perigee height: 532 km
apogee height: 657 km
right ascension of ascending node: 113.2888°
argument of perigee: 295.9436°
revolutions per day: 14.90965606
mean anomaly at epoch: 189.0575°
orbit number at epoch: 56940

The dashed part of the orbit path shows where the satellite is in the earth's shadow,  

DLR